Lid_Strength_Index
1 1 2 5 12 12 16 14 13 12 11 8 8 8 9 8 9 12 3 1 1 1 -0 -0 -1 -1 -1 -1 -1 -1 -2 -2 -1 -1 -2 -2 -2 -2 -2 -2 -2 -2 -2 -2 -2 -2 -2 -2 -2
1 1 5 7 14 17 16 12 12 9 8 8 8 8 9 9 7 6 4 1 0 0 -0 -0 -1 -1 -1 -1 -1 -2 -2 -2 -2 -2 -2 -2 -2 -2 -2 -2 -2 -2 -2 -2 -2 -2 -2 -2 -2
1 2 8 11 14 16 17 12 9 8 7 8 8 6 7 8 5 4 2 1 0 0 -0 -0 -1 -1 -1 -1 -2 -2 -2 -2 -2 -2 -2 -2 -2 -2 -2 -2 -2 -2 -2 -2 -2 -2 -2 -2 -2
3 6 8 13 15 13 14 13 10 9 7 7 7 9 6 5 4 3 1 0 1 0 0 -0 -1 -1 -1 -1 -2 -2 -2 -2 -2 -2 -2 -3 -2 -2 -2 -2 -2 -2 -1 -2 -2 -2 -2 -2 -2
6 8 14 15 15 13 11 10 10 11 10 10 7 9 9 5 3 1 1 1 1 1 0 -0 -1 -1 -1 -1 -2 -2 -2 -2 -2 -2 -2 -2 -2 -2 -2 -2 -2 -1 -2 -2 -2 -2 -2 -2 -2
8 10 16 17 16 13 12 9 10 10 9 9 10 9 8 4 3 2 1 1 0 1 -0 -0 -0 -1 -1 -1 -2 -2 -2 -2 -2 -2 -2 -2 -2 -2 -2 -2 -2 -2 -2 -2 -2 -2 -2 -2 -2
10 12 15 16 17 15 12 11 11 10 11 11 8 9 8 4 2 1 1 1 0 0 0 -0 -0 -0 -1 -1 -1 -1 -2 -2 -2 -2 -2 -2 -2 -2 -2 -2 -2 -2 -2 -2 -2 -2 -2 -2 -2
9 11 15 15 15 15 12 11 10 10 10 10 6 9 10 5 2 1 1 1 1 1 0 0 -0 0 -0 -0 -1 -1 -1 -2 -2 -2 -2 -1 -2 -2 -2 -2 -2 -2 -2 -2 -2 -2 -2 -2 -2
8 13 15 15 14 14 11 11 10 10 11 10 7 6 5 3 2 2 3 2 2 1 1 0 0 0 0 0 0 -0 -1 -1 -1 -1 -1 -1 -1 -1 -1 -0 -1 -2 -2 -2 -2 -2 -2 -1 -1
9 13 14 12 11 13 10 10 10 11 11 11 9 6 4 3 3 4 4 4 3 2 1 1 0 1 0 1 1 2 1 -0 -0 -0 -0 -0 -0 0 -0 -0 -1 -2 -2 -2 -2 -2 -0 2 4
9 12 11 11 10 10 10 10 9 11 12 10 9 7 5 4 4 4 4 3 3 2 1 1 1 1 1 1 2 2 3 1 -0 -0 0 0 -0 -0 0 1 2 0 -0 1 2 3 4 5 5
11 9 9 9 9 9 10 9 10 10 9 9 6 5 5 5 5 4 4 3 3 2 2 1 1 2 1 1 2 3 4 3 1 1 1 0 1 0 0 2 3 4 4 5 4 5 6 6 7
10 10 9 8 8 8 9 10 10 10 9 8 8 5 5 5 5 4 3 3 2 3 2 2 1 2 1 2 2 3 5 4 3 1 1 1 1 1 1 3 5 6 5 5 5 6 6 7 7
9 9 9 9 9 9 10 10 9 9 8 8 7 6 5 5 5 4 4 3 3 2 2 2 2 2 2 2 2 3 4 5 3 2 1 1 2 2 3 4 6 7 5 5 5 6 8 9 8
10 12 11 10 9 9 9 11 11 8 8 8 8 6 6 5 4 4 3 3 3 2 1 2 2 2 2 3 3 3 4 5 4 4 3 2 3 3 4 6 6 7 6 6 6 8 9 10 9
12 12 15 11 10 10 9 14 10 8 8 9 8 6 6 5 4 4 3 3 2 2 2 2 2 3 3 3 4 3 4 4 4 4 4 3 3 4 6 6 7 7 6 6 7 9 10 11 11
14 17 15 14 9 10 11 14 11 9 9 9 8 9 6 5 5 4 3 3 3 2 2 3 3 3 3 3 3 4 4 4 5 4 3 4 4 5 6 7 8 7 7 7 8 10 10 12 13
19 17 16 16 12 10 11 13 11 10 9 9 8 8 7 6 5 4 3 2 2 2 2 2 3 3 3 3 4 4 4 5 5 5 4 5 5 7 7 8 8 7 8 9 9 11 12 12 13
16 18 18 16 14 15 15 15 13 9 9 10 9 8 8 7 5 4 3 3 2 2 2 3 3 2 3 4 5 5 6 5 5 6 6 6 6 7 7 8 8 8 8 9 10 11 12 14 13
15 18 20 16 14 13 15 16 13 11 11 11 10 9 8 7 6 5 4 3 3 3 2 2 3 3 3 3 4 4 5 5 6 7 7 7 8 9 7 7 8 8 10 10 10 11 13 14 13
14 17 18 17 14 14 15 17 16 13 11 11 10 9 7 7 7 6 5 4 3 3 3 2 2 2 3 3 4 4 6 6 7 9 8 8 8 9 9 8 8 9 9 10 11 11 12 13 13
17 11 12 14 17 21 13 23 16 13 12 11 11 10 7 8 7 6 5 4 4 3 2 2 2 2 2 4 4 6 7 7 6 7 7 9 9 11 10 9 9 9 9 10 11 11 12 11 13
13 10 12 13 17 18 19 20 20 12 13 12 11 9 7 7 7 6 5 4 3 3 2 2 2 3 2 3 3 5 6 6 6 6 8 9 10 11 11 10 10 10 10 11 11 12 12 12 13
10 12 13 14 16 21 19 18 20 17 12 11 9 8 7 7 6 6 5 4 4 3 2 2 2 3 3 3 3 4 6 6 7 9 10 10 10 12 12 11 10 10 11 12 12 13 13 13 13
12 15 24 23 23 22 17 18 17 14 12 9 9 8 6 6 6 6 6 4 4 4 3 2 2 3 3 3 4 4 5 7 7 9 9 11 12 12 12 12 12 11 11 12 12 13 14 14 14
14 15 21 24 24 21 15 20 17 12 10 10 9 7 7 6 5 6 5 5 4 4 3 3 3 3 3 3 4 4 5 6 7 8 8 8 10 9 11 11 12 12 11 12 12 13 14 14 15
14 17 14 18 17 19 17 16 13 11 11 10 10 9 8 7 6 6 5 4 4 4 3 3 3 3 3 3 4 5 5 6 6 7 8 8 9 9 11 12 12 11 12 12 13 13 14 14 15
14 13 20 19 24 23 18 17 17 15 14 10 10 8 8 7 6 6 5 4 4 3 3 2 2 3 3 3 4 5 6 7 6 6 8 9 9 10 11 11 11 12 12 13 13 15 15 15 15
16 19 18 18 20 24 22 19 14 16 14 12 11 9 8 9 7 6 5 4 4 3 3 3 3 3 4 4 5 6 6 6 7 7 8 9 10 10 11 11 11 12 13 13 13 13 14 15 15
14 17 18 22 22 19 20 19 13 15 13 9 10 8 8 8 10 7 6 4 4 4 3 3 3 3 3 4 5 6 6 7 7 8 9 10 10 10 10 11 12 12 13 13 13 14 14 15 15